This is the latest recevied weather packets stored in our database for station/object JH1LWU-13. If no packets are shown the sender has not sent any weather packets the latest 10 day(s).
| Time | Temp. | Humidity | Pressure | Rain* | Wind** | Luminosity | Snow |
|---|---|---|---|---|---|---|---|
| 1777802590 | 18.89° C | 66% | 1002 hPa | 0 mm | - | - | - |
| 1777800789 | 19.44° C | 65% | 1003 hPa | 0 mm | - | - | - |
| 1777798988 | 19.44° C | 63% | 1003 hPa | 0 mm | - | - | - |
| 1777797187 | 20° C | 62% | 1004 hPa | 0 mm | - | - | - |
| 1777795386 | 20.56° C | 63% | 1003 hPa | 0 mm | - | - | - |
| 1777793585 | 21.11° C | 60% | 1003 hPa | 0 mm | - | - | - |
| 1777791784 | 21.11° C | 62% | 1003 hPa | 0 mm | - | - | - |
| 1777789983 | 21.11° C | 62% | 1003 hPa | 0 mm | - | - | - |
| 1777788182 | 22.22° C | 59% | 1003 hPa | 0 mm | - | - | - |
| 1777786381 | 22.22° C | 56% | 1003 hPa | 0 mm | - | - | - |
| 1777784580 | 22.22° C | 49% | 1005 hPa | 0 mm | - | - | - |
| 1777782779 | 23.33° C | 44% | 1005 hPa | 0 mm | - | - | - |
| 1777780978 | 22.78° C | 47% | 1007 hPa | 0 mm | - | - | - |
| 1777779177 | 22.22° C | 51% | 1006 hPa | 0 mm | - | - | - |
| 1777777376 | 22.22° C | 56% | 1006 hPa | 0 mm | - | - | - |
| 1777775575 | 20.56° C | 58% | 1007 hPa | 0 mm | - | - | - |
| 1777773774 | 20° C | 56% | 1007 hPa | 0 mm | - | - | - |
| 1777771973 | 19.44° C | 56% | 1010 hPa | 0 mm | - | - | - |
| 1777770172 | 20° C | 57% | 1009 hPa | 0 mm | - | - | - |
| 1777768371 | 19.44° C | 56% | 1008 hPa | 0 mm | - | - | - |
| 1777766570 | 20° C | 54% | 1010 hPa | 0 mm | - | - | - |
| 1777764769 | 18.89° C | 55% | 1008 hPa | 0 mm | - | - | - |
| 1777762968 | 18.33° C | 55% | 1008 hPa | 0 mm | - | - | - |
| 1777761167 | 17.78° C | 58% | 1008 hPa | 0 mm | - | - | - |
| 1777759366 | 17.78° C | 59% | 1008 hPa | 0 mm | - | - | - |
* Rain latest hour (hover to see other rain measurements)
** Current wind speed in m/s (hover to see current wind gust speed)